Location: *
(42.0175°N, 9.4056°E)
Time: 11:57:05
(UTC+00:00)

Cosmos 2278 - Pass Details

Date: 25 August 2019
Orbit: 840 x 852 km, 71.1° (Epoch: 21 September)

Event Time Altitude Azimuth Distance (km) Brightness Sun altitude
Rises 19:33:50 0° 341° (NNW) 3,408 7.7 -15.5°
Reaches altitude 10° 19:36:26 10° 349° (NNW) 2,470 6.7 -15.9°
Maximum altitude 19:41:46 41° 59° (ENE) 1,203 4.3 -16.7°
Enters shadow 19:44:13 27° 109° (ESE) 1,558 4.5 -17.1°
